Regional Weather Roundup
Issued by NWS

Home | Current Version | Previous Version | Text Only | Print | Product List | Glossary On
Versions: 1 2 3 4 5 6 7 8 9 10 11 12 13 14 15 16 17 18 19 20 21 22 23 24 25 26 27 28 29 30 31 32 33 34 35 36 37 38 39 40 41 42 43 44 45 46 47 48 49 50
000
ASPQ40 PGUM 280614
RWRPQ
WEATHER ROUNDUP FOR THE MARIANAS AND MICRONESIA
NATIONAL WEATHER SERVICE TIYAN GU
400 PM CHST THU MAY 28 2015

GUZ001>004-280700-
MARIANA ISLANDS-

CITY           SKY/WX    TMP DP  RH WIND       PRES   REMARKS
GUAM AIRPORT   MOSUNNY   82  77  83 E10       29.80F HX  91
ANDERSEN AFB   LGT RAIN  82  77  83 E21G29    29.81S HX  91
ROTA AIRPORT   NOT AVBL
TINIAN AP      NOT AVBL
SAIPAN AP      MOSUNNY   84  77  79 SE7G22    29.82S HX  94

$$

PMZ161-280700-
REPUBLIC OF PALAU-

CITY           SKY/WX    TMP DP  RH WIND       PRES   REMARKS
KOROR AP       PTSUNNY   88  77  70 W6        29.79  HX 100
KOROR WSO      CLOUDY    90  73  58 NW5       29.78S HX  98

$$

PMZ171>174-280700-
FEDERATED STATES OF MICRONESIA-

CITY           SKY/WX    TMP DP  RH WIND       PRES   REMARKS
YAP AIRPORT    PTSUNNY   86  77  74 VRB3      29.77F HX  97
CHUUK AP       PTSUNNY   88  79  74 S8        29.80S HX 102
POHNPEI AP     NOT AVBL
POHNPEI WSO    PTSUNNY   84  77  79 SW3       29.84R HX  94
KOSRAE AP      NOT AVBL

$$

PMZ181-280700-
REPUBLIC OF THE MARSHALL ISLANDS-

CITY           SKY/WX    TMP DP  RH WIND       PRES   REMARKS
KWAJALEIN AP   CLOUDY    84  73  70 N6        29.83R HX  91
MAJURO AP      NOT AVBL
MAJURO WSO     PTSUNNY   82  77  83 NE10      29.81R HX  91

$$



USA.gov is the U.S. government's official web portal to all federal, state and local government web resources and services.